TimeCDT,TemperatureF,Dew PointF,Humidity,Sea Level PressureIn,VisibilityMPH,Wind Direction,Wind SpeedMPH,Gust SpeedMPH,PrecipitationIn,Events,Conditions,WindDirDegrees,DateUTC
12:53 AM,30.9,21.9,69,30.06,10.0,NNE,3.5,-,N/A,,Overcast,20,2013-03-24 05:53:00
1:53 AM,30.9,23.0,72,30.05,10.0,NNE,5.8,-,N/A,,Overcast,20,2013-03-24 06:53:00
2:53 AM,30.9,24.1,76,30.02,10.0,NNE,5.8,-,N/A,,Overcast,30,2013-03-24 07:53:00
3:53 AM,32.0,25.0,75,30.00,10.0,NE,9.2,-,N/A,,Overcast,50,2013-03-24 08:53:00
4:53 AM,32.0,27.0,82,29.98,10.0,ENE,9.2,-,N/A,,Overcast,60,2013-03-24 09:53:00
5:35 AM,33.8,26.6,75,29.95,10.0,ENE,12.7,-,N/A,,Overcast,70,2013-03-24 10:35:00
5:53 AM,33.1,25.0,72,29.96,10.0,ENE,15.0,-,N/A,,Overcast,70,2013-03-24 10:53:00
6:08 AM,33.8,24.8,70,29.93,10.0,East,16.1,-,N/A,,Overcast,80,2013-03-24 11:08:00
6:44 AM,32.0,24.8,75,29.93,10.0,East,18.4,-,N/A,,Overcast,80,2013-03-24 11:44:00
6:53 AM,32.0,24.1,73,29.96,10.0,ENE,15.0,-,N/A,,Overcast,70,2013-03-24 11:53:00
7:53 AM,32.0,25.0,75,29.94,10.0,ENE,16.1,24.2,N/A,,Overcast,70,2013-03-24 12:53:00
8:53 AM,33.1,25.0,72,29.94,10.0,ENE,15.0,-,N/A,,Overcast,70,2013-03-24 13:53:00
9:53 AM,34.0,25.0,70,29.92,10.0,ENE,18.4,26.5,N/A,,Overcast,60,2013-03-24 14:53:00
10:53 AM,37.0,27.0,67,29.88,10.0,NE,19.6,25.3,N/A,,Overcast,50,2013-03-24 15:53:00
11:53 AM,36.0,27.0,70,29.86,10.0,ENE,18.4,-,N/A,,Overcast,60,2013-03-24 16:53:00
12:53 PM,36.0,28.0,73,29.84,10.0,ENE,18.4,26.5,N/A,,Overcast,60,2013-03-24 17:53:00
1:16 PM,35.6,28.4,75,29.80,10.0,NE,17.3,-,N/A,,Overcast,50,2013-03-24 18:16:00
1:53 PM,36.0,27.0,70,29.81,10.0,ENE,19.6,-,N/A,,Overcast,60,2013-03-24 18:53:00
2:53 PM,35.1,26.1,70,29.78,10.0,NE,21.9,32.2,N/A,,Overcast,50,2013-03-24 19:53:00
3:35 PM,33.8,26.6,75,29.74,10.0,NE,23.0,29.9,N/A,,Overcast,40,2013-03-24 20:35:00
3:53 PM,34.0,27.0,75,29.75,10.0,NE,16.1,24.2,N/A,,Overcast,40,2013-03-24 20:53:00
4:53 PM,33.1,26.1,75,29.74,10.0,NNE,20.7,27.6,N/A,,Overcast,30,2013-03-24 21:53:00
5:53 PM,33.1,26.1,75,29.75,10.0,NNE,18.4,25.3,N/A,,Overcast,30,2013-03-24 22:53:00
7:53 PM,34.0,27.0,75,29.78,9.0,NNE,20.7,29.9,0.00,,Overcast,20,2013-03-25 00:53:00
8:15 PM,33.8,24.8,70,29.75,10.0,NNE,18.4,26.5,N/A,,Overcast,20,2013-03-25 01:15:00
8:53 PM,33.1,24.1,70,29.78,10.0,North,18.4,27.6,N/A,,Overcast,10,2013-03-25 01:53:00
9:53 PM,33.1,25.0,72,29.78,10.0,North,18.4,26.5,N/A,,Overcast,10,2013-03-25 02:53:00
10:53 PM,34.0,24.1,67,29.77,10.0,NNE,23.0,28.8,N/A,,Overcast,20,2013-03-25 03:53:00
11:46 PM,33.8,24.8,70,29.74,10.0,NNE,21.9,31.1,N/A,,Overcast,20,2013-03-25 04:46:00
11:53 PM,33.1,25.0,72,29.76,10.0,NNE,21.9,31.1,N/A,,Overcast,20,2013-03-25 04:53:00